NOAA 14

operational
NORAD ID: 23455 Int'l Des: 1994-089 Owner: NOAA Country: US
LEOCIRCULARRETROGRADESSO

About NOAA 14

Description loading...

Live Position

Loading 3D Globe...

Upcoming Passes

Altitude History

Altitude vs Time

uPlot chart will show altitude changes over time

Two-Line Element Set

1 23455U 94089A 26063.09450013 .00000117 00000-0 82378-4 0 9999
2 23455 98.5013 37.5754 0010080 31.7277 328.4503 14.14653874608343
Epoch: Mar 4, 2026 • Age: 10 hours

Current Status

Altitude 850.7 km
Velocity 7.43 km/s
Sub-Earth Point 16.52°N, 89.17°W
Launch Date Dec 30, 1994
Age 31.1 years
Type weather

Technical Details

Classification Payload
Mass 980.00 kg
Dry Mass 980.00 kg
Total Mass 1712.00 kg
Length 4.20 m
Diameter 1.90 m
Span 8.00 m
Shape Box + Pan
Manufacturer MMAS
Bus Type ATN
Phase Status In Orbit
Owner/State NOAA/US

Large Constellations

Loading constellations...